#timestamp,LO_Frequency,Hit,StdDev 
1596572575.3,286047014.5,P
1596572595.1,286047014.8,P
1596572615.9,286047016.5,P
1596572635.7,286047014.1,Y
1596572655.6,286047000.4,P
1596572675.4,286047000.7,N
1596572695.2,286047002.5,N
1596572715.1,286046999.7,N
1596572716.0,286046999.7,N
1596572735.8,286047000.5,N
1596572785.7,286047002.1,E
1596572795.6,286047000.4,N
1596572815.4,286047001.0,P
1596572835.3,286047000.6,N
1596572855.1,286047001.1,Y
1596572875.9,286047001.1,P
1596572895.7,286046998.1,P
1596572915.5,286047000.0,N
1596572935.4,286047001.0,N
1596572955.2,286047002.4,N
1596572975.0,286047000.0,N
1596572975.9,286047000.0,N
1596572995.8,286047000.7,N
1596573015.6,286046999.9,N
1596573035.5,286047001.2,N
1596573055.3,286047000.6,N
1596573075.1,286046999.9,N
1596573095.9,286047000.0,N
1596573115.7,286047000.4,N
1596573135.5,286047002.8,Y
1596573155.4,286047001.0,P
1596573175.2,286047000.3,N
1596573195.1,286047000.5,N
1596573196.0,286047000.5,N
1596573215.8,286047000.1,N
1596573235.6,286047000.4,N
1596573255.5,286047002.8,Y
1596573275.3,286046999.9,P
1596573295.1,286047000.4,N
1596573315.9,286047002.0,P
1596573335.7,286047000.9,N
1596573355.6,286047001.1,N
1596573375.4,286046998.2,N
1596573395.2,286047000.7,N
1596573415.1,286046998.5,N
1596573416.0,286046998.5,N
1596573435.8,286047001.2,N
1596573455.6,286046998.1,N
1596573475.5,286047001.1,N
1596573495.3,286047000.7,N
1596573515.2,286046998.1,N
1596573535.9,286047001.0,N
1596573555.7,286047001.0,N
1596573575.6,286047001.0,N
1596573595.4,286047000.6,N
1596573615.2,286047000.5,N
1596573635.1,286047000.6,N
1596573636.0,286047000.6,N
1596573655.8,286047001.2,N
1596573675.7,286047002.8,N
1596573695.5,286047000.3,N
1596573715.3,286047000.7,N
1596573735.2,286047002.6,N
1596573755.0,286047003.9,Y
1596573755.9,286047003.9,P
1596573775.8,286047002.3,N
1596573795.6,286047002.7,N
1596573815.4,286047000.5,N
1596573835.3,286047002.3,N
1596573855.1,286047001.9,N
1596573875.8,286047000.3,N
1596573895.7,286047000.6,N
1596573915.5,286046998.2,N
1596573935.4,286047000.0,N
1596573955.2,286046998.1,N
1596573975.0,286047001.0,N
1596573975.9,286047001.0,N
1596573995.8,286047002.8,N
1596574015.6,286046999.8,N
1596574035.5,286047000.4,N
1596574055.3,286047000.9,N
1596574075.1,286047000.5,N
1596574095.9,286047000.3,N
1596574115.7,286047000.8,N
1596574135.5,286047000.2,N
1596574155.4,286047000.6,N
1596574175.2,286047000.8,N
1596574195.1,286047001.0,N
1596574196.0,286047001.0,N
1596574215.8,286047000.5,N
1596574235.6,286046999.7,N
1596574255.5,286047002.4,N
1596574275.3,286047001.0,N
1596574295.1,286047002.6,N
1596574315.9,286047000.0,N
1596574335.7,286047000.8,N
1596574355.6,286046998.9,N
1596574375.4,286046998.2,N
1596574395.2,286046998.1,N
1596574415.1,286047001.0,N
1596574416.0,286047001.0,N
1596574435.8,286047000.5,N
1596574455.7,286047001.0,N
1596574475.5,286047002.4,N
1596574495.3,286046999.8,N
1596574515.2,286047000.1,N
1596574535.0,286047000.0,N
1596574535.9,286047000.0,N
1596574555.8,286047001.6,N
1596574575.6,286046999.9,N
1596574595.4,286047000.2,N
1596574615.3,286046999.8,N
1596574635.1,286047000.1,N
1596574655.8,286047002.4,N
1596574675.7,286047000.4,N
1596574695.5,286046999.7,N
1596574715.4,286046998.9,N
1596574735.2,286047001.2,N
1596574755.0,286046998.5,N
1596574755.9,286046998.5,N
1596574775.8,286046998.1,N
1596574795.6,286046998.2,N
